This is the latest recevied weather packets stored in our database for station/object IK6IHU-3. If no packets are shown the sender has not sent any weather packets the latest 10 day(s).
| Time | Temp. | Humidity | Pressure | Rain* | Wind** | Luminosity | Snow |
|---|---|---|---|---|---|---|---|
| 1777303745 | 21.67° C | 51% | 1015.4 hPa | 0 mm | - | 0 W/m² | - |
| 1777303625 | 21.67° C | 49% | 1015.6 hPa | 0 mm | - | 0 W/m² | - |
| 1777303325 | 21.67° C | 51% | 1015.5 hPa | 0 mm | - | 0 W/m² | - |
| 1777303265 | 21.67° C | 51% | 1015.6 hPa | 0 mm | - | 0 W/m² | - |
| 1777303085 | 21.67° C | 49% | 1015.6 hPa | 0 mm | - | 0 W/m² | - |
| 1777302965 | 21.67° C | 50% | 1015.6 hPa | 0 mm | - | 0 W/m² | - |
| 1777302725 | 21.67° C | 51% | 1015.4 hPa | 0 mm | - | 0 W/m² | - |
| 1777302545 | 21.67° C | 51% | 1015.5 hPa | 0 mm | - | 0 W/m² | - |
| 1777302485 | 21.67° C | 52% | 1015.6 hPa | 0 mm | - | 0 W/m² | - |
| 1777302365 | 21.67° C | 49% | 1015.7 hPa | 0 mm | - | 0 W/m² | - |
| 1777301345 | 21.67° C | 51% | 1015.5 hPa | 0 mm | - | 0 W/m² | - |
| 1777300865 | 21.67° C | 51% | 1015.7 hPa | 0 mm | - | 0 W/m² | - |
| 1777300805 | 21.67° C | 51% | 1015.5 hPa | 0 mm | - | 0 W/m² | - |
| 1777300744 | 21.67° C | 52% | 1015.8 hPa | 0 mm | - | 0 W/m² | - |
| 1777300685 | 21.11° C | 50% | 1015.6 hPa | 0 mm | - | 0 W/m² | - |
| 1777300625 | 21.67° C | 53% | 1015.7 hPa | 0 mm | - | 0 W/m² | - |
| 1777300565 | 21.67° C | 53% | 1015.8 hPa | 0 mm | - | 0 W/m² | - |
| 1777300505 | 21.11° C | 51% | 1015.7 hPa | 0 mm | - | 0 W/m² | - |
| 1777300444 | 21.11° C | 49% | 1015.8 hPa | 0 mm | - | 0 W/m² | - |
| 1777300385 | 21.67° C | 52% | 1015.7 hPa | 0 mm | - | 0 W/m² | - |
| 1777300324 | 21.67° C | 53% | 1015.7 hPa | 0 mm | - | 0 W/m² | - |
| 1777300265 | 21.67° C | 52% | 1015.5 hPa | 0 mm | - | 0 W/m² | - |
| 1777300205 | 21.11° C | 52% | 1015.7 hPa | 0 mm | - | 0 W/m² | - |
| 1777300145 | 21.67° C | 51% | 1015.7 hPa | 0 mm | - | 0 W/m² | - |
| 1777300084 | 21.67° C | 54% | 1015.7 hPa | 0 mm | - | 0 W/m² | - |
* Rain latest hour (hover to see other rain measurements)
** Current wind speed in m/s (hover to see current wind gust speed)